HYSIS (43719 NORAD) Tracking and Keplerian Element Data

This shows tracking and keplerian element data for the satellite.

Feedback or suggestion? Click here.




ElementValue
Catalog43719
NameHYSIS
Epoch Orbit165
Epoch Day344.4028411
Epoch Year2018
RAAN49.3064
Inclination97.9728
Eccentricity0.0014533
Argument of Perigee198.7796
Mean Anonmoly161.2875
Mean Motion14.77247331
Decay Rate1.19E-06
L11 43719U 18096A 18344.40284110 .00000119 00000-0 24084-4 0 9991
L22 43719 97.9728 49.3064 0014533 198.7796 161.2875 14.77247331 1658

Live tracking and technical data element details for HYSIS (NORAD 43719). HYSIS can be tracked NOW for your location showing map with azimuth and elevation plus other details from your city location.

Track the satellite on the map from your city or location and see movement details for azimuth, elevation, latitude, longitude, range, height, and movement on the map or in text.







IsCatalogInMostPopularTable: catalog: 43719, numindb: 4
Update: records affected: 1



GetName: 43719 HYSIS

Hit Count: updated at: Tue, 11 Dec 2018 03:12:31 GMT